Location: *
(43.7000°S, 168.7000°W)
Time: 14:52:32
(UTC+00:00)

Cosmos 921 Rocket - Pass Details

Date: 07 July 2020
Orbit: 572 x 632 km, 75.8° (Epoch: 03 August)

Event Time Altitude Azimuth Distance (km) Brightness Sun altitude
Rises 17:18:30 0° 325° (NW) 2,797 6.2 -15.6°
Reaches altitude 10° 17:20:49 10° 316° (NW) 1,900 5.3 -15.2°
Maximum altitude 17:24:46 39° 247° (WSW) 891 3.4 -14.5°
Drops below altitude 10° 17:28:46 10° 177° (S) 1,916 5.4 -13.8°
Sets 17:31:07 0° 169° (SSE) 2,824 6.4 -13.4°
